Sauk Centre, MN

3:32 PM CST on December 08, 2019 (GMT -0600)
Sauk Centre

Weather History for KD39 - October, 2019

Change the Weather History Date:

Monday, October 28, 2019

  Actual Average (KGHW) Record (KGHW)
Temperature  
Mean Temperature 28 °F -  
Max Temperature 32 °F 54 °F 73 °F (1966)
Min Temperature 25 °F 31 °F 11 °F (1952)
Degree Days  
Heating Degree Days 36    
Moisture  
Dew Point 16 °F    
Average Humidity 61    
Maximum Humidity 81    
Minimum Humidity 47    
Precipitation  
Precipitation 0.00 in - - ()
Sea Level Pressure  
Sea Level Pressure 30.06 in    
Wind  
Wind Speed 9 mph ()    
Max Wind Speed 15 mph    
Max Gust Speed 20 mph    
Visibility 10.0 miles    
Events      
Averages and records for this station are not official NWS values.
T = Trace of Precipitation, MM = Missing Value Source: Averaged Metar Reports

Daily Weather History Graph

Daily Weather History Graph

Search for Another Location

Airport or City:

Astronomy

Oct. 28, 2019 Rise Set
Actual Time 7:53 AM CDT 6:12 PM CDT
Civil Twilight 7:23 AM CDT 6:43 PM CDT
Nautical Twilight 6:48 AM CDT 7:18 PM CDT
Astronomical Twilight 6:13 AM CDT 7:52 PM CDT
Moon 8:15 AM CDT (10/28) 6:57 PM CDT (10/28)
Length of Visible Light 11h 20m
Length of Day
10h 18m
New Moon, 0% of the Moon is Illuminated
Oct 28
New Moon
Nov 4
First Quarter
Nov 12
Full
Nov 19
Last Quarter
Nov 26
New

Hourly Weather History & Observations

Time (CDT) Temp. Windchill Dew Point Humidity Pressure Visibility Wind Dir Wind Speed Gust Speed Precip Events Conditions
12:15 AM 29.7 °F 21.3 °F 18.3 °F 63% 30.08 in 10.0 mi WNW 9.2 mph - N/A   Overcast
12:16 AM 29.7 °F 20.7 °F 18.1 °F 62% 30.08 in 10.0 mi WNW 10.4 mph - N/A   Overcast
12:35 AM 29.3 °F 19.1 °F 16.7 °F 59% 30.08 in 10.0 mi WNW 12.7 mph 16.1 mph N/A   Overcast
12:36 AM 29.3 °F 19.1 °F 16.7 °F 59% 30.08 in 10.0 mi WNW 12.7 mph 16.1 mph N/A   Overcast
12:59 AM 29.3 °F 19.1 °F 16.7 °F 59% 30.09 in 10.0 mi West 12.7 mph 17.3 mph N/A   Overcast
1:17 AM 29.1 °F 20.6 °F 16.5 °F 59% 30.09 in 10.0 mi West 9.2 mph - N/A   Overcast
1:35 AM 28.9 °F 19.8 °F 16.7 °F 60% 30.09 in 10.0 mi West 10.4 mph - N/A   Overcast
1:36 AM 28.9 °F 19.8 °F 16.7 °F 60% 30.09 in 10.0 mi West 10.4 mph - N/A   Overcast
1:55 AM 28.8 °F 19.0 °F 17.1 °F 62% 30.08 in 10.0 mi West 11.5 mph - N/A   Overcast
1:56 AM 28.6 °F 19.3 °F 16.9 °F 62% 30.08 in 10.0 mi West 10.4 mph - N/A   Overcast
2:18 AM 28.4 °F 19.1 °F 16.9 °F 62% 30.08 in 10.0 mi WNW 10.4 mph 18.4 mph N/A   Overcast
2:36 AM 28.2 °F 17.2 °F 15.8 °F 60% 30.08 in 10.0 mi WNW 13.8 mph - N/A   Overcast
2:55 AM 28.0 °F 19.3 °F 15.8 °F 60% 30.08 in 10.0 mi WNW 9.2 mph - N/A   Overcast
2:56 AM 28.0 °F 18.6 °F 15.8 °F 60% 30.08 in 10.0 mi WNW 10.4 mph - N/A   Overcast
3:15 AM 28.0 °F 18.1 °F 16.3 °F 62% 30.08 in 10.0 mi WNW 11.5 mph - N/A   Overcast
3:16 AM 28.0 °F 18.1 °F 16.2 °F 61% 30.08 in 10.0 mi WNW 11.5 mph - N/A   Overcast
3:38 AM 27.9 °F 17.3 °F 15.8 °F 61% 30.07 in 10.0 mi West 12.7 mph 17.3 mph N/A   Overcast
3:56 AM 27.9 °F 19.1 °F 15.1 °F 59% 30.08 in 10.0 mi WNW 9.2 mph - N/A   Overcast
4:16 AM 27.9 °F 19.1 °F 15.6 °F 60% 30.07 in 10.0 mi West 9.2 mph - N/A   Overcast
4:35 AM 27.7 °F 17.1 °F 15.3 °F 60% 30.06 in 10.0 mi West 12.7 mph - N/A   Overcast
4:36 AM 27.7 °F 18.2 °F 15.1 °F 59% 30.06 in 10.0 mi WNW 10.4 mph - N/A   Overcast
4:55 AM 27.5 °F 19.3 °F 15.4 °F 61% 30.06 in 10.0 mi WNW 8.1 mph - N/A   Overcast
5:17 AM 27.5 °F 16.8 °F 16.0 °F 62% 30.06 in 10.0 mi West 12.7 mph 17.3 mph N/A   Overcast
5:36 AM 27.5 °F 17.4 °F 15.3 °F 60% 30.06 in 10.0 mi West 11.5 mph 17.3 mph N/A   Overcast
5:55 AM 27.5 °F 16.3 °F 16.2 °F 62% 30.05 in 10.0 mi West 13.8 mph 17.3 mph N/A   Overcast
5:56 AM 27.5 °F 16.8 °F 16.0 °F 62% 30.05 in 10.0 mi West 12.7 mph 17.3 mph N/A   Overcast
6:15 AM 27.5 °F 18.6 °F 15.4 °F 61% 30.06 in 10.0 mi West 9.2 mph 18.4 mph N/A   Overcast
6:38 AM 27.5 °F 18.0 °F 15.8 °F 61% 30.05 in 10.0 mi West 10.4 mph - N/A   Overcast
6:56 AM 27.5 °F 18.6 °F 16.3 °F 63% 30.05 in 10.0 mi West 9.2 mph - N/A   Overcast
7:15 AM 27.5 °F 19.3 °F 16.2 °F 62% 30.05 in 10.0 mi West 8.1 mph - N/A   Overcast
7:16 AM 27.5 °F 19.3 °F 16.2 °F 62% 30.05 in 10.0 mi West 8.1 mph - N/A   Overcast
7:35 AM 27.3 °F 19.1 °F 16.3 °F 63% 30.06 in 10.0 mi West 8.1 mph - N/A   Overcast
7:36 AM 27.5 °F 18.6 °F 16.3 °F 63% 30.06 in 10.0 mi West 9.2 mph - N/A   Overcast
7:55 AM 27.5 °F 19.3 °F 16.7 °F 64% 30.06 in 10.0 mi West 8.1 mph - N/A   Overcast
8:17 AM 27.5 °F 20.2 °F 18.1 °F 68% 30.05 in 10.0 mi West 6.9 mph - N/A   Overcast
8:36 AM 27.5 °F 20.2 °F 18.5 °F 69% 30.06 in 10.0 mi West 6.9 mph - N/A   Overcast
8:56 AM 27.5 °F 18.6 °F 18.5 °F 69% 30.06 in 10.0 mi WSW 9.2 mph - N/A   Overcast
9:15 AM 27.5 °F 18.0 °F 16.2 °F 62% 30.08 in 10.0 mi WSW 10.4 mph - N/A   Overcast
9:16 AM 27.5 °F 18.6 °F 16.0 °F 62% 30.08 in 10.0 mi WSW 9.2 mph - N/A   Overcast
9:38 AM 28.4 °F 19.7 °F 15.4 °F 58% 30.08 in 10.0 mi WSW 9.2 mph - N/A   Overcast
9:56 AM 29.5 °F 20.4 °F 15.3 °F 55% 30.08 in 10.0 mi WSW 10.4 mph - N/A   Mostly Cloudy
10:15 AM 29.1 °F 19.4 °F 14.5 °F 55% 30.07 in 10.0 mi WSW 11.5 mph 17.3 mph N/A   Mostly Cloudy
10:16 AM 29.1 °F 20.0 °F 14.5 °F 55% 30.07 in 10.0 mi WSW 10.4 mph 17.3 mph N/A   Mostly Cloudy
10:35 AM 29.3 °F 21.5 °F 14.5 °F 54% 30.07 in 10.0 mi WNW 8.1 mph - N/A   Scattered Clouds
10:36 AM 29.5 °F 21.8 °F 14.5 °F 54% 30.07 in 10.0 mi WNW 8.1 mph - N/A   Scattered Clouds
10:55 AM 30.0 °F 20.5 °F 13.6 °F 51% 30.06 in 10.0 mi WSW 11.5 mph - N/A   Scattered Clouds
11:00 AM 30.2 °F 20.2 °F 13.8 °F 51% 30.07 in 10.0 mi SW 12.7 mph - N/A   Scattered Clouds
11:17 AM 30.4 °F 20.0 °F 13.5 °F 50% 30.06 in 10.0 mi WSW 13.8 mph - N/A   Scattered Clouds
11:35 AM 30.9 °F 22.2 °F 13.6 °F 49% 30.06 in 10.0 mi SW 10.4 mph 18.4 mph N/A   Clear
11:55 AM 31.3 °F 21.6 °F 13.6 °F 48% 30.06 in 10.0 mi SW 12.7 mph 18.4 mph N/A   Clear
11:56 AM 31.3 °F 21.6 °F 13.6 °F 48% 30.06 in 10.0 mi SW 12.7 mph 18.4 mph N/A   Clear
12:15 PM 32.0 °F 22.1 °F 14.4 °F 48% 30.06 in 10.0 mi SW 13.8 mph 19.6 mph N/A   Scattered Clouds
12:16 PM 32.0 °F 21.6 °F 14.4 °F 48% 30.06 in 10.0 mi SW 15.0 mph 19.6 mph N/A   Scattered Clouds
12:39 PM 31.8 °F 21.8 °F 14.0 °F 48% 30.06 in 10.0 mi WSW 13.8 mph - N/A   Clear
12:56 PM 32.5 °F 24.2 °F 14.7 °F 48% 30.06 in 10.0 mi WSW 10.4 mph 17.3 mph N/A   Clear
1:15 PM 32.0 °F 24.2 °F 14.4 °F 48% 30.05 in 10.0 mi SW 9.2 mph 17.3 mph N/A   Clear
1:16 PM 32.0 °F 23.6 °F 14.4 °F 48% 30.05 in 10.0 mi SW 10.4 mph 17.3 mph N/A   Clear
1:35 PM 31.3 °F 23.3 °F 13.3 °F 47% 30.05 in 10.0 mi SW 9.2 mph 19.6 mph N/A   Clear
1:36 PM 31.3 °F 23.3 °F 13.5 °F 48% 30.05 in 10.0 mi SW 9.2 mph 19.6 mph N/A   Clear
1:55 PM 31.1 °F 20.9 °F 13.3 °F 48% 30.04 in 10.0 mi SW 13.8 mph 18.4 mph N/A   Clear
2:17 PM 30.2 °F 20.8 °F 13.6 °F 50% 30.04 in 10.0 mi WSW 11.5 mph 18.4 mph N/A   Clear
2:35 PM 30.0 °F 21.1 °F 13.8 °F 51% 30.05 in 10.0 mi WSW 10.4 mph - N/A   Clear
2:55 PM 30.2 °F 20.2 °F 14.2 °F 51% 30.04 in 10.0 mi WSW 12.7 mph 18.4 mph N/A   Clear
2:56 PM 30.2 °F 20.2 °F 14.2 °F 51% 30.04 in 10.0 mi WSW 12.7 mph 18.4 mph N/A   Clear
3:16 PM 30.2 °F 20.2 °F 14.2 °F 51% 30.04 in 10.0 mi WSW 12.7 mph - N/A   Clear
3:39 PM 30.2 °F 20.8 °F 14.7 °F 53% 30.04 in 10.0 mi West 11.5 mph - N/A   Clear
3:56 PM 30.7 °F 22.0 °F 14.9 °F 52% 30.03 in 10.0 mi West 10.4 mph 16.1 mph N/A   Clear
4:16 PM 30.7 °F 22.6 °F 15.3 °F 53% 30.03 in 10.0 mi WSW 9.2 mph - N/A   Clear
4:35 PM 30.2 °F 21.9 °F 15.6 °F 55% 30.04 in 10.0 mi SW 9.2 mph - N/A   Clear
4:36 PM 30.2 °F 21.9 °F 15.6 °F 55% 30.04 in 10.0 mi SW 9.2 mph - N/A   Clear
4:55 PM 30.0 °F 24.1 °F 15.8 °F 56% 30.05 in 10.0 mi WSW 5.8 mph - N/A   Clear
4:59 PM 30.0 °F 23.2 °F 16.0 °F 56% 30.05 in 10.0 mi SW 6.9 mph - N/A   Clear
5:18 PM 30.2 °F 23.4 °F 15.8 °F 55% 30.05 in 10.0 mi West 6.9 mph - N/A   Clear
5:35 PM 29.5 °F 24.5 °F 16.0 °F 57% 30.04 in 10.0 mi SW 4.6 mph - N/A   Clear
5:55 PM 29.1 °F - 16.2 °F 58% 30.04 in 10.0 mi Calm Calm - N/A   Clear
5:56 PM 29.1 °F - 16.2 °F 58% 30.04 in 10.0 mi Calm Calm - N/A   Clear
6:15 PM 28.4 °F - 17.6 °F 64% 30.04 in 10.0 mi Calm Calm - N/A   Clear
6:16 PM 28.4 °F - 17.4 °F 63% 30.04 in 10.0 mi Calm Calm - N/A   Clear
6:38 PM 28.0 °F - 18.3 °F 67% 30.05 in 10.0 mi Calm Calm - N/A   Clear
6:56 PM 27.3 °F - 18.3 °F 69% 30.05 in 10.0 mi Calm Calm - N/A   Clear
7:16 PM 26.4 °F 20.9 °F 19.2 °F 74% 30.06 in 10.0 mi SSE 4.6 mph - N/A   Clear
7:35 PM 25.7 °F 19.0 °F 19.8 °F 78% 30.06 in 10.0 mi SSE 5.8 mph - N/A   Clear
7:36 PM 25.7 °F 20.1 °F 19.8 °F 78% 30.06 in 10.0 mi SSE 4.6 mph - N/A   Clear
7:55 PM 25.7 °F 20.1 °F 19.6 °F 78% 30.06 in 10.0 mi SE 4.6 mph - N/A   Clear
7:59 PM 25.7 °F 21.5 °F 19.8 °F 78% 30.06 in 10.0 mi SE 3.5 mph - N/A   Clear
8:17 PM 26.1 °F 21.9 °F 19.8 °F 77% 30.06 in 10.0 mi SE 3.5 mph - N/A   Clear
8:36 PM 25.5 °F 21.3 °F 20.1 °F 80% 30.06 in 10.0 mi SE 3.5 mph - N/A   Clear
8:55 PM 25.7 °F - 20.3 °F 80% 30.06 in 10.0 mi Calm Calm - N/A   Clear
9:15 PM 25.7 °F - 20.3 °F 80% 30.06 in 10.0 mi Calm Calm - N/A   Clear
9:19 PM 25.7 °F - 20.3 °F 80% 30.06 in 10.0 mi Calm Calm - N/A   Clear
9:38 PM 25.9 °F 21.7 °F 20.3 °F 79% 30.07 in 10.0 mi South 3.5 mph - N/A   Clear
9:55 PM 25.5 °F - 20.5 °F 81% 30.07 in 10.0 mi Calm Calm - N/A   Clear
10:15 PM 26.1 °F - 20.1 °F 78% 30.08 in 10.0 mi Calm Calm - N/A   Clear
10:36 PM 26.2 °F - 20.1 °F 78% 30.08 in 10.0 mi Calm Calm - N/A   Clear
10:58 PM 26.6 °F - 19.6 °F 75% 30.08 in 10.0 mi Calm Calm - N/A   Clear
11:17 PM 27.0 °F - 20.3 °F 76% 30.08 in 10.0 mi Calm Calm - N/A   Clear
11:35 PM 26.8 °F 21.4 °F 20.3 °F 77% 30.08 in 10.0 mi WSW 4.6 mph - N/A   Clear
11:55 PM 26.6 °F 22.6 °F 20.3 °F 77% 30.08 in 10.0 mi WSW 3.5 mph - N/A   Scattered Clouds
11:56 PM 26.6 °F 22.6 °F 20.3 °F 77% 30.08 in 10.0 mi WSW 3.5 mph - N/A   Scattered Clouds